Temp
54 52 52 52 53 54 56 57 56 54 54 52 49 48 45 44 43 43 41 41 41 41
53 52 52 53 55 57 57 56 55 53 52 49 50 47 45 43 43 42 41 41 40 39
53 54 53 54 55 55 55 56 53 52 51 50 49 45 44 42 43 42 41 41 40 39
55 55 54 55 55 55 55 53 51 49 50 49 47 44 43 43 43 42 41 40 39 39
55 55 54 54 55 55 52 51 50 50 49 48 44 44 43 43 43 41 41 41 39 38
54 54 54 53 52 53 51 51 50 50 47 45 43 43 43 42 42 42 42 40 38 37
53 53 52 51 51 51 51 50 48 48 46 43 43 43 43 43 42 41 41 40 38 37
51 51 50 49 49 49 48 48 47 45 44 42 42 43 41 42 40 38 37 37 38 38
49 48 46 46 45 45 43 44 43 42 40 40 45 45 44 41 38 37 36 34 34 35
45 43 42 42 41 39 38 40 40 41 41 40 41 43 43 42 38 35 33 32 32 34
40 39 39 38 37 36 36 36 38 39 41 39 41 42 41 41 33 31 32 32 32 31
39 38 37 35 34 35 39 40 40 40 39 37 36 41 41 36 31 31 30 33 32 33
37 36 35 37 40 39 38 40 40 38 36 39 32 42 41 37 33 29 30 30 32 37
37 36 38 37 37 39 39 38 35 33 32 32 33 33 41 41 32 31 30 30 30 31
MSLP
1007.31 1008.57 1009.80 1010.78 1011.53 1012.00 1012.45 1013.05 1014.15 1015.07 1015.84 1016.42 1017.26 1017.98 1018.41 1018.73 1019.11 1019.54 1019.93 1020.34 1020.63 1020.97
1007.13 1008.43 1009.37 1010.38 1011.18 1011.98 1012.75 1013.04 1014.18 1015.16 1016.01 1016.72 1017.11 1017.90 1018.44 1018.77 1019.27 1019.60 1019.98 1020.33 1020.63 1021.03
1007.11 1008.22 1009.14 1010.15 1010.95 1012.06 1012.76 1013.14 1014.24 1015.26 1015.88 1016.92 1017.08 1018.00 1018.48 1018.88 1019.32 1019.59 1020.00 1020.29 1020.62 1021.05
1007.14 1008.09 1009.18 1009.97 1010.94 1011.84 1012.61 1013.20 1014.42 1015.40 1015.97 1016.67 1017.37 1017.94 1018.59 1018.97 1019.33 1019.57 1019.90 1020.22 1020.58 1020.90
1006.85 1008.04 1009.00 1009.99 1010.88 1011.94 1012.56 1013.55 1014.71 1015.64 1016.07 1016.88 1017.33 1018.13 1018.52 1018.94 1019.27 1019.55 1019.85 1020.12 1020.48 1020.72
1006.92 1008.17 1009.16 1010.04 1010.92 1011.80 1012.68 1013.76 1014.65 1015.51 1016.30 1016.78 1017.63 1018.07 1018.58 1019.01 1019.26 1019.60 1019.82 1020.04 1020.22 1020.43
1007.61 1008.36 1009.47 1010.50 1011.29 1011.90 1012.75 1013.49 1014.75 1015.48 1016.38 1016.90 1017.75 1018.27 1018.69 1019.08 1019.41 1019.67 1019.84 1019.99 1020.12 1020.19
1008.23 1009.16 1010.21 1011.11 1012.21 1012.96 1013.88 1014.17 1015.13 1016.00 1016.43 1017.21 1017.88 1018.50 1018.93 1019.33 1019.62 1019.76 1019.94 1020.01 1020.05 1019.97
1009.35 1010.47 1011.36 1012.32 1013.21 1014.35 1015.34 1015.98 1016.44 1017.08 1016.92 1017.48 1018.08 1018.60 1018.97 1019.33 1019.60 1019.84 1019.95 1020.03 1019.88 1019.77
1010.49 1011.56 1012.66 1013.19 1014.19 1015.70 1016.17 1016.69 1017.95 1017.57 1017.83 1017.93 1018.39 1018.88 1019.09 1019.29 1019.52 1019.76 1019.87 1019.87 1019.75 1019.58
1011.80 1012.96 1013.83 1014.42 1015.11 1015.73 1016.81 1017.24 1018.22 1017.86 1018.26 1018.47 1018.70 1019.15 1019.22 1019.35 1019.59 1019.75 1019.70 1019.68 1019.59 1019.40
1013.27 1014.10 1014.91 1015.67 1015.71 1016.60 1016.96 1018.01 1017.85 1018.34 1018.65 1018.84 1018.88 1019.14 1019.18 1019.38 1019.49 1019.59 1019.66 1019.51 1019.37 1019.24
1013.93 1014.72 1015.04 1015.68 1016.29 1016.91 1017.50 1018.12 1018.28 1018.69 1018.81 1018.76 1018.99 1019.00 1018.96 1018.98 1019.30 1019.63 1019.65 1019.55 1019.30 1019.02
1014.80 1015.45 1016.24 1016.76 1017.10 1017.85 1018.24 1018.27 1018.66 1018.80 1018.97 1018.82 1018.90 1018.81 1018.67 1018.82 1019.22 1019.50 1019.49 1019.30 1019.03 1018.74
Wind_Speed
15 10 9 11 9 9 10 10 12 10 9 10 8 6 6 4 5 6 5 5 3 2
13 14 13 12 12 9 9 10 12 11 10 8 8 7 7 5 5 5 4 4 3 2
13 13 13 12 13 12 11 13 12 11 12 9 8 7 6 5 5 6 3 3 4 2
13 13 13 13 12 12 13 14 13 11 9 10 8 7 6 6 6 5 4 2 2 2
15 14 14 13 13 14 14 14 14 12 10 9 7 6 6 5 5 5 3 2 2 2
15 14 13 13 15 15 16 15 13 10 10 9 7 7 6 6 5 4 2 1 2 3
14 13 14 13 14 14 14 14 13 11 10 8 6 6 6 5 5 3 3 2 1 2
12 13 13 13 12 12 11 10 11 10 9 8 7 5 5 4 4 4 3 4 4 2
14 14 14 14 13 12 11 9 9 7 7 7 6 11 9 6 3 3 3 4 5 5
16 16 14 15 15 11 9 6 4 5 4 6 7 9 8 7 3 3 3 4 5 5
16 16 12 13 13 12 7 6 4 5 4 5 5 9 7 8 4 3 4 4 4 4
13 12 11 9 10 7 9 5 4 4 5 5 5 7 6 5 3 4 5 4 5 6
11 10 10 8 8 4 4 4 5 4 5 7 5 6 3 4 2 3 3 5 5 11
10 10 4 5 5 5 5 5 4 4 2 4 4 1 2 4 2 3 3 3 4 4
Wind_Direction
146 148 155 163 162 169 167 153 149 144 142 132 131 131 126 123 126 127 128 134 133 134
139 152 158 160 161 162 161 142 140 135 129 126 131 137 138 128 128 127 136 145 137 134
145 152 150 151 155 159 152 141 133 136 134 143 131 138 130 126 135 125 121 137 141 149
146 145 148 154 154 153 147 132 130 129 152 134 134 130 127 130 140 133 137 119 159 186
137 143 148 152 152 152 139 134 145 148 139 137 122 135 133 132 129 139 146 168 181 226
134 147 145 145 143 142 139 141 132 135 136 126 134 121 119 125 118 111 111 206 210 232
146 137 136 137 135 136 137 140 140 132 130 116 120 114 107 97 83 69 46 12 318 245
117 120 122 115 116 114 122 121 116 117 120 119 115 116 102 89 77 51 9 349 332 288
105 105 102 103 98 92 90 86 102 110 115 129 115 116 102 98 78 39 1 321 313 291
103 102 101 100 92 83 75 86 80 100 108 101 107 118 107 80 67 21 337 311 303 303
97 92 100 105 115 115 120 134 176 128 112 119 127 112 90 71 51 12 346 334 337 334
102 111 111 110 115 142 158 164 115 123 111 108 122 123 96 94 64 19 340 335 340 321
111 110 129 137 142 99 112 128 108 120 134 134 145 154 109 90 98 5 325 297 282 307
115 114 102 92 97 115 122 113 120 115 133 136 155 169 39 342 146 245 271 285 294 296